カタログに戻る

USA 577

運用中軍事VLEO
NORAD 67489·PAYLOAD·🇺🇸 United States

打ち上げ Jan 17, 2026 から Vandenberg Space Force Base

Loading…

次のパス (今後24時間)

TLE

古いSource: Mike McCants

元期: Jul 26, 2026, 22:16 UTC

1 67489U 26011F   26207.92808461 0.00000000  00000-0  00000-0 0    02
2 67489  70.0210 137.2383 0002000 286.1340  73.8660 14.96713362    01

AllMySatでUSA 577をリアルタイム追跡

Download on the App Store